Regional Weather Roundup
Issued by NWS Wakefield, VA

Home | Current Version | Previous Version | Graphics & Text | Print | Product List | Glossary On
Versions: 1 2 3 4 5 6 7 8 9 10 11 12 13 14 15 16 17 18 19 20 21 22 23 24 25 26 27 28 29 30 31 32 33 34 35 36 37 38 39 40 41 42 43 44 45 46 47 48 49 50
000
ASUS41 KAKQ 202210
RWRAKQ

REGIONAL WEATHER ROUNDUP
NATIONAL WEATHER SERVICE WAKEFIELD VA
600 PM EDT SAT SEP 20 2014

Note: "fair" indicates few or no clouds below 12,000 feet with no
significant weather and/or obstructions to visibility. * = Denotes
station may not report precipitation (e.g., rain,snow,etc.),
thunder or fog.

VAZ042-051-052>054-056-202300-
NORTHERN VIRGINIA

CITY           SKY/WX    TMP DP  RH WIND       PRES   REMARKS
WASH NATIONAL  MOSUNNY   81  56  42 SE8       30.08F
DULLES         MOSUNNY   76  55  48 SE9       30.08F
FORT BELVOIR   SUNNY     78  60  54 SE5       30.08F
QUANTICO       SUNNY     78  59  51 SE10      30.08F
FREDERICKSBRG* SUNNY     80  56  44 E8        30.06F
STAFFORD*      SUNNY     77  56  47 E9        30.12F
WARRENTON      SUNNY     80  65  61 E9        30.07F
CULPEPER*      SUNNY     81  54  39 SE3       30.07F
MANASSAS*      SUNNY     79  57  47 SE10      30.08F
LEESBURG*      SUNNY     81  57  44 S9        30.08S
WINCHESTER     SUNNY     79  55  44 SE10G16   30.06S
FRONT ROYAL*   CLEAR     77  57  50 S5        30.05S
LURAY*         CLEAR     81  57  44 S5        30.06S
$$

VAZ048-049-060>072-079>083-202300-
CENTRAL AND SOUTH CENTRAL VIRGINIA...AND NORTH CENTRAL NORTH CAROLINA

CITY           SKY/WX    TMP DP  RH WIND       PRES   REMARKS
RICHMOND       PTSUNNY   77  59  53 E8        30.07F
CHESTERFIELD*  PTCLDY   N/A N/A N/A E9        30.08F
PETERSBURG*    MOSUNNY   76  57  51 E8        30.07S
HANOVER        MOSUNNY   76  61  59 VRB5      30.08F
TAPPAHANNOCK*  MOSUNNY   74  60  59 E7        30.09F
CHARLOTTSVILLE SUNNY     78  55  44 S7        30.07F
ORANGE*        SUNNY     79  54  41 E6        30.09S
LOUISA*        SUNNY     79  55  44 SE5       30.07S
FARMVILLE*     MOSUNNY   82  52  34 E5        30.05S
CREWE*         CLEAR     76  61  58 CALM      30.05F
FORT PICKETT*  CLEAR     77  58  53 E5        30.06F
LUNENBURG*     CLEAR     78  61  55 CALM      30.06F
SOUTH HILL*    SUNNY     79  63  57 N3        30.11F
LAWRENCEVILLE* PTCLDY    76  64  66 CALM      30.06S
ROANOKE RAPIDS MOCLDY    75  61  60 NE6       30.05S
RALEIGH        PTSUNNY   77  59  53 NE9       30.04F
$$

VAZ088>098-202300-
SOUTHEAST VIRGINIA

CITY           SKY/WX    TMP DP  RH WIND       PRES   REMARKS
NORFOLK        CLOUDY    72  66  81 E9        30.07S
VIRGINIA BEACH CLOUDY    72  67  84 NE10      30.06S
NORFOLK NAVAL  CLOUDY    74  67  78 E14       30.08F
WEST POINT*    MOSUNNY   76  62  61 NE8       30.09F
NEWPORT NEWS   CLOUDY    76  65  68 E9G20     30.08F
LANGLEY AFB    CLOUDY    73  68  85 E13       30.07S
FORT EUSTIS    PTSUNNY   74  60  61 E8        30.06F
WILLIAMSBURG*  MOSUNNY   77  66  69 E7        30.08S
HR EXEC AP*    CLOUDY    72  64  78 NE7       30.09S
FRANKLIN*      PTSUNNY   75  64  69 NE12      30.06S
WAKEFIELD      PTSUNNY   76  64  66 VRB3      30.07S
$$

VAZ020-022-025-037-045-202300-
WEST CENTRAL AND SOUTHWEST VIRGINIA

CITY           SKY/WX    TMP DP  RH WIND       PRES   REMARKS
STAUNTON*      SUNNY     78  52  40 SE10      30.09F
HOT SPRINGS VA SUNNY     63  43  48 S7        30.20F
LYNCHBURG      SUNNY     77  59  53 CALM      30.09F
DANVILLE       MOSUNNY   78  58  49 NE5       30.07F
SOUTH BOSTON*  NOT AVBL
MARTINSVILLE   SUNNY     78  58  48 CALM      30.10F
ROANOKE        MOSUNNY   76  55  48 CALM      30.11F
BLACKSBURG     SUNNY     73  61  64 SE6       30.14F
DUBLIN*        SUNNY     76  57  51 SE3       30.12F
MARION*        SUNNY     74  56  54 CALM      30.15F
HILLSVILLE*    SUNNY     70  56  59 CALM      30.14F
RICHLANDS*     CLEAR     77  56  48 CALM      30.12F
WISE*          PTSUNNY   72  55  56 S3        30.13F
ABINGDON*      SUNNY     79  53  39 CALM      30.09F
$$

MDZ021>025-VAZ099-100-202300-
SOUTHERN MARYLAND AND THE DELMARVA PENINSULA

CITY           SKY/WX    TMP DP  RH WIND       PRES   REMARKS
PATUXENT RIVER MOSUNNY   75  62  64 SE6       30.08F
BAY BRIDGE APT   N/A     75  59  57 SW3       30.08F
LEONARDTOWN    MOSUNNY   73  59  60 SE6       30.10F
DOVER          MOSUNNY   73  67  80 SE9       30.10F
GEORGETOWN     MOSUNNY   75  62  64 SE8       30.11F
EASTON         MOSUNNY   79  59  50 SE6       30.13F
CAMBRIDGE      MOSUNNY   77  59  53 E7        30.08F
SALISBURY      PTSUNNY   75  63  66 E6        30.09F
OCEAN CITY     PTSUNNY   71  66  84 E13G18    30.10F
WALLOPS ISLAND CLOUDY    73  67  81 E14       30.10F
ACCOMACK*      MOSUNNY   72  63  73 E10       30.08F
$$

NCZ012>017-030>032-202300-
EASTERN NORTH CAROLINA

CITY           SKY/WX    TMP DP  RH WIND       PRES   REMARKS
ELIZABETH CITY CLOUDY    72  68  88 NE12      30.04F
AHOSKIE*       MOSUNNY   74  65  72 NE7       30.05F
EDENTON*       CLOUDY    73  67  82 NE7       30.04F
CURRITUCK*     CLOUDY    73  68  84 NE7       30.05F
KILL DEVIL HLS CLOUDY    73  70  92 NE10G22   30.01F FOG
MANTEO         CLOUDY    73  70  92 NE16      30.03S
CAPE HATTERAS  LGT RAIN  68  68 100 NW6       30.00F FOG
TARBORO*       MOCLDY    77  66  68 NE8       30.04S
GOLDSBORO      PTSUNNY   76  70  80 N2        30.00S
WASHINGTON     CLOUDY    73  67  81 NE7       30.03S
GREENVILLE     PTSUNNY   75  68  78 NE12G18   30.04F
NEW BERN       CLOUDY    76  68  76 NE10      30.01S
WILMINGTON     CLOUDY    74  68  81 N14       29.96F
$$

VAZ048-202300-
ELSEWHERE

CITY           SKY/WX    TMP DP  RH WIND       PRES   REMARKS
HARRISBURG PA  MOSUNNY   77  58  51 SE13      30.06F
BALTIMORE      MOSUNNY   76  57  51 S6        30.09F
ANNAPOLIS      SUNNY     76  58  53 S8        30.08F
ANDREWS AFB    SUNNY     76  59  54 E8        30.09F
WILMINGTON DE  SUNNY     74  63  68 S12       30.12F
PHILADELPHIA   MOSUNNY   76  59  55 SE10      30.12F
WILDWOOD NJ*   PTSUNNY   73  61  64 SE9       30.13F
ATLANTIC CITY  PTSUNNY   73  64  73 E7        30.13F
HENDERSON NC   MOSUNNY   75  58  54 NE6       30.06F
GREENSBORO     MOSUNNY   77  55  46 NE8       30.06F
ROCKY MOUNT    CLOUDY    77  62  59 N10       30.03F
FAYETTEVILLE   CLOUDY    77  61  57 NE8       30.00F
CHARLOTTE      PTSUNNY   81  57  43 N7        30.05F
$$

VAZ100-202300-
MARINE

STATION/POSITION TIME  TEMP    WIND        PRES    WAVE   SWELL
                       AIR SEA DIR/SP/G            HT/PER HT/PER
                 (UTC) (F)     (DEG/KT/KT) (MB)    (FT/S) (FT/S)
44066 TX TWR #4  2200   72 72  140/ 16/ 17 1020.5F   4/10   3/10
CAPE MAY NJ      2200   71 75  160/  6/ 11 1019.5S
LEWES DE         2200   72 72  130/  9/ 12 1019.4F
15NM E FENWICK I 2200   71 72              1018.7F   6/ 9
OCEAN-CITY-INLET 2200   72 71  110/  7/ 12 1018.8S
WACHAPREAGUE VA  2200   72 74   60/ 12/ 16 1018.5F
THOMAS POINT MD  2200   74 75  190/  6/  7 1019.6F
GOOSES REEF MD   2200   75     200/  6/  8 1019.4F
COVE POINT MD    2200   74     170/ 11/ 12 1018.7F
SOLOMONS ISLAND  2200      77                N/A
BISHOPS HEAD MD  2200   74 74  100/ 11/ 13 1018.4S
PINEY POINT MD   2200          160/  6/  7   N/A
POTOMAC MD       2200   74     130/ 12/ 14 1018.1F
CAMBRIDGE MD     2200   77 74  110/  5/  8 1018.5F
LEWISETTA VA     2200   74 76  130/ 13/ 15 1018.4F
RAPPAHANNOCK LGT 2200           70/ 15/ 18 1018.8F
STINGRAY PT      2200   74      90/ 10/ 12   N/A
YORK RVR RNG VA  2200   73      80/ 14/ 16 1018.1S
YORKTOWN VA      2200   72 76   70/ 15/ 16 1018.3F
JAMESTOWN VA     2200   73     110/  8/ 14   N/A
DOMINION TERM VA 2200   72      60/ 13/ 18 1018.6R
KIPTOPEKE VA     2200      79   80/ 10/ 15   N/A
CHES BAY BRIDGE  2200   72 75   50/ 17/ 19 1017.7R
CAPE HENRY VA    2200   71      60/ 17/ 18 1016.9F
CHESAPEAKE LGHT  2100   71      60/ 21/ 23 1018.6F
WILLOUBY STN VA  2200   72      60/ 14/ 16 1017.0S
S CRANEY ISL VA  2200           20/ 11/ 14 1017.9S
CAPE HENRY BUOY  2200      75                N/A     7/ 8   2/11
1ST LANDING BUOY 2200   72      60/ 16/ 19 1017.9S
CAPE CHARLES BUO 2200      75                N/A     6/ 9   3/ 9
OFFSHORE WE BUOY 2200      74                N/A     7/ 9   5/ 9
64NM E OF VA BCH 2200   75 77   20/ 16/ 17 1016.7F   7/10   5/10
DUCK PIER NC     2200   73 74   50/ 19/ 24 1016.3S
44100 DUCK FRF   2200      74                N/A     7/ 9   2/11
44056 DUCK FRF   2200                        N/A     7/ 8   2/11
OREGON INLET NC  2200   74 73   30/ 12/ 15 1016.2S
HATTERAS NC      2200   70 73   40/  6/  9 1016.6S
DIAMOND SHLS NC  2200   75     120/ 23/ 27 1015.1F   7/10   3/10
CAPE LOOKOUT NC  2100   74      40/ 24/ 27 1015.4S
$$


USA.gov is the U.S. government's official web portal to all federal, state and local government web resources and services.